Location: Eymir
(36.7333°N, 29.7833°E)
Time: 18:44:36
(UTC+00:00)

Cosmos 2074 Rocket - Pass Details

Date: 14 January 2026
Orbit: 965 x 986 km, 82.9° (Epoch: 17 February)

Event Time Altitude Azimuth Distance (km) Brightness Sun altitude
Rises 03:29:00 0° 182° (S) 3,676 7.1 -20.5°
Reaches altitude 10° 03:31:30 10° 182° (S) 2,733 6.5 -20.0°
Maximum altitude 03:37:47 83° 96° (E) 997 4.1 -18.7°
Drops below altitude 10° 03:44:06 10° 8° (N) 2,748 6.3 -17.5°
Sets 03:46:37 0° 8° (N) 3,699 7.0 -17.0°
